Regional Weather Roundup
Issued by NWS Sterling, VA

Home | Current Version | Previous Version | Graphics & Text | Print | Product List | Glossary On
Versions: 1 2 3 4 5 6 7 8 9 10 11 12 13 14 15 16 17 18 19 20 21 22 23 24 25 26 27 28
000
ASUS41 KLWX 242311
RWRLWX

REGIONAL WEATHER ROUNDUP
NATIONAL WEATHER SERVICE BALTIMORE MD/WASHINGTON DC
700 PM EDT MON APR 24 2017

Note: "FAIR" indicates few or no clouds below 12,000 feet
with no significant weather and/or obstructions to visibility.
 TC=TEMPERATURE CELSIUS

 * =Non NWS site. Station does not report precipitation (e.g. rain,
    snow, etc.), thunder, or fog.

DCZ001-MDZ009-015-VAZ040>042-051-053>054-250000-
WASHINGTON METRO

CITY           SKY/WX    TMP DP  RH WIND       PRES   REMARKS
WASHINGTON NAT CLOUDY    57  49  74 NE15      30.00F
DULLES         LGT RAIN  52  49  89 N8        30.01F FOG
ANDREWS AFB    DRIZZLE   54  46  76 NE13      29.99S
FT BELVOIR     LGT RAIN  54  52  94 CALM      30.00S FOG
QUANTICO       CLOUDY    55  54  94 NE16G22   30.00F
COLLEGE PARK*  CLOUDY    55  45  69 NE6       30.01S
LEESBURG*      LGT RAIN  52  52 100 NE10      30.03S
MANASSAS*      LGT RAIN  51  50  96 N10       30.01S

$$

MDZ006>007-011-014-250000-
BALTIMORE METRO

CITY           SKY/WX    TMP DP  RH WIND       PRES   REMARKS
BWI AIRPORT    CLOUDY    56  47  71 E18       30.02S
MD SCIENCE CTR   N/A     59  43  55 MISG      30.03F
MARTIN STATE   DRIZZLE   57  48  72 NE3       30.05S
ANNAPOLIS      CLOUDY    58  47  66 NE15G21   30.02S
FORT MEADE*    CLOUDY    54  45  71 NE9G21    30.04S

$$

MDZ012-015-019>023-250000-
MARYLAND EASTERN SHORE

CITY           SKY/WX    TMP DP  RH WIND       PRES   REMARKS
OCEAN CITY     CLOUDY    53  51  93 NE15G24   29.99S
SALISBURY      CLOUDY    53  53 100 NE13G22   29.99S
BAY BRIDGE AP* CLOUDY    55  46  71 NE10G21   30.01S
EASTON*        LGT RAIN  55  48  76 E12G18    30.03F

$$

MDZ017>025-250000-
SOUTHERN MARYLAND

CITY           SKY/WX    TMP DP  RH WIND       PRES   REMARKS
PATUXENT RIVER LGT RAIN  54  54 100 NE12      29.97F FOG
ST INIGOES     CLOUDY    55  53  93 NE15G25   29.95S
LEONARDTOWN*   CLOUDY    52  50  93 NE6       29.99S

$$

MDZ003>005-250000-
NORTH CENTRAL MARYLAND

CITY           SKY/WX    TMP DP  RH WIND       PRES   REMARKS
FREDERICK*     CLOUDY    55  55 100 N8        30.07S
HAGERSTOWN APT LGT RAIN  53  48  83 NE8       30.04F
WESTMINSTER*   CLOUDY    52  48  87 NE8       30.04S

$$

MDZ501>502-250000-
WESTERN MARYLAND

CITY           SKY/WX    TMP DP  RH WIND       PRES   REMARKS
OAKLAND*       CLOUDY    43  41  93 E15G24    29.99S FOG
CUMBERLAND*    CLOUDY    54  46  76 CALM      30.09R

$$

VAZ025>031-250000-
SHENANDOAH VALLEY

CITY           SKY/WX    TMP DP  RH WIND       PRES   REMARKS
WINCHESTER*    LGT RAIN  48  46  93 N3        30.03F
FRONT ROYAL*   CLOUDY    50  48  93 N6        30.03S
LURAY*         RAIN      48  48 100 NE10G18   30.01S
NEW MARKET*    CLOUDY    49  47  91 N9        30.00S
STAUNTON*      RAIN      49  48  96 N8        30.00R
WAYNESBORO*    CLOUDY    49  49 100 N8        29.97S

$$

WVZ021-048>050-054>055-250000-
EASTERN WEST VIRGINIA PANHANDLE

CITY           SKY/WX    TMP DP  RH WIND       PRES   REMARKS
MARTINSBURG    LGT RAIN  51  48  89 VRB6      30.04S FOG
PETERSBURG*    LGT RAIN  52  50  92 N5        30.04S

$$

VAZ036>039-050-250000-
CENTRAL FOOTHILLS

CITY           SKY/WX    TMP DP  RH WIND       PRES   REMARKS
CHARLOTTESVILL RAIN      51  49  92 NE13G25   29.97S FOG
CULPEPER*      DRIZZLE   51  50  96 N8        30.01S
ORANGE*        LGT RAIN  50  46  87 NE9G16    29.98S
GORDONSVILLE*  CLOUDY    50  49  98 N10G20    29.97S
WARRENTON*     DRIZZLE   52  48  87 NE8       30.00S

$$

VAZ055>057-250000-
NORTH AND CENTRAL PIEDMONT

CITY           SKY/WX    TMP DP  RH WIND       PRES   REMARKS
FREDERICKSBRG* LGT RAIN  52  52 100 NE7       29.98R
STAFFORD*      DRIZZLE   52  52 100 N6        30.02F

$$

NCZ024-NYZ072-PAZ021-071-VAZ022-071-250000-
OTHER REGIONAL OBSERVATIONS

CITY           SKY/WX    TMP DP  RH WIND       PRES   REMARKS
NEW YORK CITY  CLOUDY    57  43  59 VRB3      30.16S
PHILADELPHIA   CLOUDY    57  39  51 NE14G24   30.08F
PITTSBURGH     LGT RAIN  56  46  69 E9        29.99S
ROANOKE        RAIN      53  52  96 N6        29.89F
RICHMOND       LGT RAIN  55  54  96 NE15      29.91S FOG
RALEIGH        RAIN      58  56  93 NE10      29.73F FOG

$$

ANZ530>537-250000-
MARINE OBSERVATIONS

STATION/POSITION TIME  TEMP    WIND        PRES
                       AIR SEA DIR/SP/G
                 (UTC) (F)     (DEG/KT/KT) (MB)
THOMAS PT LIGHT  2300   55 57   50/ 15/ 17   N/A
BALT KEY BRIDGE  2248   57      60/ 11/ 14 1016.7R
COVE POINT       2248   55      60/ 11/ 16 1015.9R
LEWISETTA        2248   57 61   70/ 17/ 23 1014.0S
SOLOMONS ISLAND  2248   55 60   30/ 11/ 14   N/A
PINEY POINT      2248           80/  6/  8   N/A

$$





USA.gov is the U.S. government's official web portal to all federal, state and local government web resources and services.